When you browse on this site, cookies collect data to enhance your experience and personalize the content and advertising you see.
Visit our Privacy Policy to learn more. By continuing to use the site, you agree to this use of cookies and data.
  • In Austria
  • List of Countries
  • For 7 days
  • Water Temperature
  • Weather Map
  • News
  • Weather Widgets
  • user-avatar
    Login

    Hourly Weather Potosi

    Today, 29 January, Wednesday

    Time Temperature Precipitation Wind Pressure Humidity
    00:00 +8°C° 0 mm 2 mps 466 mmHg 75%
    01:00 +9°C° 0 mm 1 mps 466 mmHg 78%
    02:00 +8°C° 0 mm 1 mps 465 mmHg 81%
    03:00 +8°C° 0 mm 1 mps 465 mmHg 82%
    04:00 +7°C° 0 mm 1 mps 465 mmHg 83%
    05:00 +7°C° 0 mm 1 mps 465 mmHg 84%
    06:00 +8°C° 0 mm 1 mps 465 mmHg 74%
    07:00 +8°C° 0 mm 1 mps 466 mmHg 64%
    08:00 +9°C° 0 mm 1 mps 467 mmHg 58%
    09:00 +10°C° 0 mm 2 mps 468 mmHg 49%
    10:00 +12°C° 0 mm 2 mps 469 mmHg 40%
    11:00 +14°C° 0 mm 2 mps 470 mmHg 31%
    12:00 +14°C° 0 mm 3 mps 470 mmHg 30%
    13:00 +16°C° 0 mm 3 mps 470 mmHg 29%
    14:00 +17°C° 0 mm 3 mps 470 mmHg 27%
    15:00 +16°C° 0.2 mm 3 mps 469 mmHg 32%
    16:00 +16°C° 0.2 mm 3 mps 468 mmHg 37%
    17:00 +14°C° 0.2 mm 3 mps 468 mmHg 42%
    18:00 +13°C° 0.5 mm 3 mps 467 mmHg 49%
    19:00 +12°C° 0.5 mm 3 mps 467 mmHg 55%
    20:00 +12°C° 0.5 mm 2 mps 467 mmHg 62%
    21:00 +10°C° 0.1 mm 2 mps 467 mmHg 63%
    22:00 +11°C° 0.1 mm 1 mps 467 mmHg 64%
    23:00 +11°C° 0.1 mm 1 mps 468 mmHg 66%

    Tomorrow, 30 January, Thursday

    Time Temperature Precipitation Wind Pressure Humidity
    00:00 +10°C° 0.2 mm 1 mps 467 mmHg 68%
    01:00 +10°C° 0.2 mm 1 mps 467 mmHg 70%
    02:00 +10°C° 0.2 mm 1 mps 467 mmHg 72%
    03:00 +9°C° 0.1 mm 1 mps 467 mmHg 75%
    04:00 +9°C° 0.1 mm 1 mps 466 mmHg 77%
    05:00 +9°C° 0.1 mm 1 mps 466 mmHg 80%
    06:00 +9°C° 0.1 mm 1 mps 467 mmHg 77%
    07:00 +8°C° 0.1 mm 2 mps 467 mmHg 75%
    08:00 +8°C° 0.1 mm 2 mps 468 mmHg 73%
    09:00 +9°C° 0.2 mm 2 mps 469 mmHg 68%
    10:00 +10°C° 0.2 mm 2 mps 469 mmHg 64%
    11:00 +11°C° 0.2 mm 3 mps 470 mmHg 60%
    12:00 +12°C° 1.2 mm 3 mps 469 mmHg 61%
    13:00 +12°C° 1.2 mm 4 mps 469 mmHg 63%
    14:00 +12°C° 1.2 mm 4 mps 469 mmHg 65%
    15:00 +11°C° 1.4 mm 4 mps 468 mmHg 67%
    16:00 +11°C° 1.4 mm 4 mps 467 mmHg 69%
    17:00 +10°C° 1.4 mm 4 mps 467 mmHg 72%
    18:00 +8°C° 0.5 mm 4 mps 467 mmHg 75%
    19:00 +8°C° 0.5 mm 3 mps 466 mmHg 79%
    20:00 +7°C° 0.5 mm 3 mps 466 mmHg 82%
    21:00 +7°C° 0 mm 3 mps 467 mmHg 84%
    22:00 +7°C° 0 mm 3 mps 467 mmHg 85%
    23:00 +7°C° 0 mm 3 mps 467 mmHg 86%

    Day after tomorrow, 31 January, Friday

    Time Temperature Precipitation Wind Pressure Humidity
    00:00 +7°C° 0 mm 2 mps 467 mmHg 85%
    01:00 +7°C° 0 mm 2 mps 467 mmHg 85%
    02:00 +7°C° 0 mm 2 mps 467 mmHg 85%
    03:00 +6°C° 0.1 mm 2 mps 467 mmHg 86%
    04:00 +6°C° 0.1 mm 2 mps 466 mmHg 87%
    05:00 +6°C° 0.1 mm 2 mps 466 mmHg 88%
    06:00 +6°C° 0.2 mm 2 mps 467 mmHg 86%
    07:00 +8°C° 0.2 mm 1 mps 467 mmHg 84%
    08:00 +8°C° 0.2 mm 1 mps 468 mmHg 82%
    09:00 +9°C° 0.2 mm 1 mps 468 mmHg 77%
    10:00 +9°C° 0.2 mm 2 mps 469 mmHg 72%
    11:00 +10°C° 0.2 mm 2 mps 469 mmHg 67%
    12:00 +12°C° 0.8 mm 2 mps 469 mmHg 65%
    13:00 +13°C° 0.8 mm 2 mps 469 mmHg 64%
    14:00 +13°C° 0.8 mm 2 mps 469 mmHg 63%
    15:00 +12°C° 1.2 mm 3 mps 468 mmHg 65%
    16:00 +12°C° 1.2 mm 3 mps 468 mmHg 67%
    17:00 +11°C° 1.2 mm 3 mps 467 mmHg 69%
    18:00 +11°C° 1 mm 3 mps 467 mmHg 72%
    19:00 +10°C° 1 mm 3 mps 467 mmHg 76%
    20:00 +9°C° 1 mm 2 mps 467 mmHg 80%
    21:00 +9°C° 0.4 mm 2 mps 467 mmHg 82%
    22:00 +8°C° 0.4 mm 2 mps 468 mmHg 84%
    23:00 +8°C° 0.4 mm 2 mps 468 mmHg 86%

    1 February, Saturday

    Time Temperature Precipitation Wind Pressure Humidity
    00:00 +8°C° 0.2 mm 2 mps 468 mmHg 87%
    01:00 +8°C° 0.2 mm 2 mps 467 mmHg 88%
    02:00 +7°C° 0.2 mm 2 mps 467 mmHg 90%
    03:00 +7°C° 0.1 mm 2 mps 467 mmHg 90%
    04:00 +8°C° 0.1 mm 1 mps 467 mmHg 91%
    05:00 +8°C° 0.1 mm 1 mps 467 mmHg 92%
    06:00 +8°C° 0.1 mm 1 mps 467 mmHg 89%
    07:00 +9°C° 0.1 mm 1 mps 468 mmHg 86%
    08:00 +9°C° 0.1 mm 1 mps 468 mmHg 83%
    09:00 +10°C° 0.7 mm 1 mps 468 mmHg 78%
    10:00 +11°C° 0.7 mm 1 mps 469 mmHg 73%
    11:00 +12°C° 0.7 mm 2 mps 469 mmHg 68%
    12:00 +12°C° 1.7 mm 2 mps 469 mmHg 67%
    13:00 +13°C° 1.7 mm 2 mps 468 mmHg 65%
    14:00 +13°C° 1.7 mm 2 mps 468 mmHg 64%
    15:00 +13°C° 1.8 mm 2 mps 468 mmHg 66%
    16:00 +13°C° 1.8 mm 2 mps 467 mmHg 67%
    17:00 +12°C° 1.8 mm 3 mps 467 mmHg 68%
    18:00 +11°C° 1.5 mm 3 mps 467 mmHg 71%
    19:00 +10°C° 1.5 mm 2 mps 467 mmHg 74%
    20:00 +10°C° 1.5 mm 2 mps 467 mmHg 77%
    21:00 +10°C° 1 mm 2 mps 467 mmHg 78%
    22:00 +9°C° 1 mm 3 mps 467 mmHg 80%
    23:00 +9°C° 1 mm 3 mps 467 mmHg 81%

    2 February, Sunday

    Time Temperature Precipitation Wind Pressure Humidity
    00:00 +9°C° 0.3 mm 2 mps 467 mmHg 83%
    01:00 +8°C° 0.3 mm 2 mps 467 mmHg 85%
    02:00 +8°C° 0.3 mm 2 mps 466 mmHg 88%
    03:00 +8°C° 0 mm 2 mps 466 mmHg 88%
    04:00 +8°C° 0 mm 1 mps 466 mmHg 87%
    05:00 +8°C° 0 mm 1 mps 466 mmHg 87%
    06:00 +9°C° 0 mm 1 mps 467 mmHg 84%
    07:00 +9°C° 0 mm 1 mps 467 mmHg 80%
    08:00 +10°C° 0 mm 1 mps 468 mmHg 76%
    09:00 +11°C° 0.3 mm 1 mps 468 mmHg 71%
    10:00 +12°C° 0.3 mm 1 mps 469 mmHg 67%
    11:00 +13°C° 0.3 mm 1 mps 469 mmHg 62%
    12:00 +13°C° 1.3 mm 2 mps 469 mmHg 61%
    13:00 +14°C° 1.3 mm 2 mps 469 mmHg 60%
    14:00 +14°C° 1.3 mm 2 mps 469 mmHg 58%
    15:00 +13°C° 2.1 mm 3 mps 468 mmHg 59%
    16:00 +13°C° 2.1 mm 3 mps 468 mmHg 60%
    17:00 +13°C° 2.1 mm 3 mps 468 mmHg 61%
    18:00 +12°C° 1 mm 3 mps 467 mmHg 66%
    19:00 +11°C° 1 mm 3 mps 467 mmHg 70%
    20:00 +10°C° 1 mm 2 mps 467 mmHg 74%
    21:00 +9°C° 0.1 mm 2 mps 467 mmHg 76%
    22:00 +9°C° 0.1 mm 2 mps 467 mmHg 78%
    23:00 +9°C° 0.1 mm 1 mps 467 mmHg 80%

    3 February, Monday

    Time Temperature Precipitation Wind Pressure Humidity
    00:00 +9°C° 0.1 mm 1 mps 467 mmHg 80%
    01:00 +9°C° 0.1 mm 1 mps 467 mmHg 80%
    02:00 +9°C° 0.1 mm 1 mps 467 mmHg 79%
    03:00 +9°C° 0.2 mm 1 mps 467 mmHg 80%
    04:00 +9°C° 0.2 mm 1 mps 467 mmHg 80%
    05:00 +8°C° 0.2 mm 0 mps 467 mmHg 80%
    06:00 +9°C° 0.2 mm 1 mps 467 mmHg 77%
    07:00 +10°C° 0.2 mm 1 mps 468 mmHg 74%
    08:00 +10°C° 0.2 mm 1 mps 468 mmHg 72%
    09:00 +11°C° 0.4 mm 1 mps 469 mmHg 67%
    10:00 +12°C° 0.4 mm 1 mps 469 mmHg 62%
    11:00 +14°C° 0.4 mm 1 mps 470 mmHg 57%
    12:00 +14°C° 0.9 mm 2 mps 470 mmHg 55%
    13:00 +14°C° 0.9 mm 3 mps 470 mmHg 52%
    14:00 +16°C° 0.9 mm 3 mps 470 mmHg 50%
    15:00 +14°C° 1.1 mm 4 mps 469 mmHg 54%
    16:00 +13°C° 1.1 mm 4 mps 468 mmHg 58%
    17:00 +13°C° 1.1 mm 4 mps 467 mmHg 61%
    18:00 +12°C° 1.6 mm 3 mps 467 mmHg 67%
    19:00 +11°C° 1.6 mm 3 mps 467 mmHg 72%
    20:00 +9°C° 1.6 mm 2 mps 467 mmHg 78%
    21:00 +9°C° 0.9 mm 2 mps 467 mmHg 77%
    22:00 +9°C° 0.9 mm 2 mps 467 mmHg 76%
    23:00 +9°C° 0.9 mm 2 mps 467 mmHg 75%
    Show more